Content
SEND FEEDBACK

Daily
Averages
Monthly
Summary
French Polynesia

PAPEETE, FRENCH POLYNESIA


Home > Oceania > French Polynesia
Elevation: 7 feet     Latitude: 17 33S     Longitude: 149 36W

WEATHER
 
SELECT A DAY
Number of Records: 215,996;   Date Range: 6/30/96 - 11/23/14
 
SHARE

PRINT THIS DATA

[ ← Previous Day ]
WEATHER ALMANAC - JANUARY 23, 2013
[ Next Day → ]
[ °C ]   °F
Weather ElementAverageHighLow
Temperature81 °F86 °F (10:00 am)73.4 °F (5:00 am)
Dewpoint71.7 °F75.2 °F (12:30 pm)68 °F (3:00 am)
Humidity72.6 %83 % (2:00 am)58 % (2:00 pm)
Barometer29.79 in29.86 in (10:00 pm)29.74 in (3:00 pm)
Wind Speed6.2 mph22.4 mph (5:00 pm)
Weather ElementAverage
Visibility7.7 mi
Wind DirectionENE (70.4 °)

Weather ElementTotal
Precipitation---
Cooling Degree Days14.7 (Base 65)
Growing Degree Days29.7 (Base 50)
Averaged from 55 records on January 23, 2013
WEATHER CONDITIONS BREAKOUT
WIND DIRECTION BREAKOUT
WEATHER BY HOUR - JANUARY 23, 2013
[ °C ]   °F
Local TimeTemperatureDewpointHumidityBarometerVisibilityWind DirectionWind SpeedGust SpeedPrecipitationEventsConditions
12:30 AM77.0 °F69.8 °F78 %29.80 in6.2 miESE (110°)2.3 mphScattered Clouds
1:00 AM77.0 °F69.8 °F78 %29.77 in6.2 miVariable3.5 mphPartly Cloudy
1:30 AM77.0 °F69.8 °F78 %29.77 in6.2 miVariable1.2 mphPartly Cloudy
2:00 AM76.0 °F70.0 °F77 %29.79 in12.0 miEast (100°)6.7 mphScattered Clouds
2:00 AM75.2 °F69.8 °F83 %29.77 in6.2 miEast (100°)3.5 mphPartly Cloudy
2:30 AM75.2 °F69.8 °F83 %29.77 in6.2 miVariable2.3 mphPartly Cloudy
3:00 AM75.2 °F68.0 °F78 %29.77 in6.2 miESE (110°)2.3 mphPartly Cloudy
3:30 AM75.2 °F69.8 °F83 %29.77 in6.2 miESE (110°)2.3 mph
4:00 AM75.2 °F69.8 °F83 %29.77 in6.2 miEast (100°)3.5 mph
4:30 AM75.2 °F69.8 °F83 %29.77 in6.2 miEast (100°)4.6 mph
5:00 AM74.0 °F69.0 °F78 %29.78 in37.0 miESE (120°)2.2 mphClear
5:00 AM73.4 °F68.0 °F83 %29.77 in6.2 miCalm
5:30 AM73.4 °F68.0 °F83 %29.77 in6.2 miSE (130°)2.3 mph
6:00 AM73.4 °F68.0 °F83 %29.80 in6.2 miVariable2.3 mphScattered Clouds
6:30 AM75.2 °F68.0 °F78 %29.80 in6.2 miCalmScattered Clouds
7:00 AM78.8 °F69.8 °F74 %29.80 in6.2 miVariable2.3 mphScattered Clouds
7:30 AM80.6 °F69.8 °F70 %29.80 in6.2 miCalmPartly Cloudy
8:00 AM82.0 °F70.0 °F59 %29.82 in16.0 miNW (320°)2.3 mphPartly Cloudy
8:00 AM82.4 °F69.8 °F66 %29.80 in6.2 miNW (320°)2.3 mphPartly Cloudy
8:30 AM82.4 °F69.8 °F66 %29.80 in6.2 miVariable2.3 mphPartly Cloudy
9:00 AM84.2 °F69.8 °F62 %29.80 in6.2 miVariable2.3 mphPartly Cloudy
9:30 AM84.2 °F73.4 °F70 %29.80 in6.2 miVariable3.5 mphScattered Clouds
10:00 AM86.0 °F73.4 °F66 %29.80 in6.2 miNE (40°)9.2 mphScattered Clouds
10:30 AM86.0 °F73.4 °F66 %29.80 in6.2 miNE (40°)10.4 mphScattered Clouds
11:00 AM85.0 °F74.0 °F62 %29.81 in16.0 miNE (50°)10.4 mphPartly Cloudy
11:00 AM86.0 °F73.4 °F66 %29.80 in6.2 miNE (50°)10.4 mphScattered Clouds
11:30 AM86.0 °F73.4 °F66 %29.80 in6.2 miNE (50°)10.4 mphScattered Clouds
12:00 PM86.0 °F73.4 °F66 %29.77 in6.2 miNE (50°)10.4 mphScattered Clouds
12:30 PM86.0 °F75.2 °F70 %29.77 in6.2 miNE (50°)9.2 mphPartly Cloudy
1:00 PM86.0 °F73.4 °F66 %29.77 in6.2 miNE (40°)10.4 mphPartly Cloudy
1:30 PM86.0 °F73.4 °F66 %29.77 in6.2 miNE (50°)11.5 mphPartly Cloudy
2:00 PM86.0 °F73.0 °F58 %29.78 in12.0 miNE (40°)11.5 mphPartly Cloudy
2:00 PM86.0 °F73.4 °F66 %29.77 in6.2 miNE (40°)11.5 mphScattered Clouds
2:30 PM86.0 °F73.4 °F66 %29.77 in6.2 miNE (50°)11.5 mphScattered Clouds
3:00 PM86.0 °F75.2 °F70 %29.74 in6.2 miNE (40°)12.7 mphPartly Cloudy
3:30 PM86.0 °F73.4 °F66 %29.74 in6.2 miNE (40°)11.5 mphPartly Cloudy
4:00 PM86.0 °F73.4 °F66 %29.74 in6.2 miNE (50°)11.5 mphPartly Cloudy
4:30 PM86.0 °F73.4 °F66 %29.74 in6.2 miNE (40°)11.5 mphPartly Cloudy
5:00 PM85.0 °F73.0 °F60 %29.76 in16.0 miNE (40°)22.4 mphScattered Clouds
5:00 PM84.2 °F73.4 °F70 %29.74 in6.2 miNE (40°)11.5 mphPartly Cloudy
5:30 PM84.2 °F73.4 °F70 %29.77 in6.2 miNE (50°)12.7 mphPartly Cloudy
6:00 PM82.4 °F73.4 °F74 %29.77 in6.2 miENE (60°)10.4 mphScattered Clouds
6:30 PM82.4 °F73.4 °F74 %29.80 in6.2 miNE (50°)10.4 mphScattered Clouds
7:00 PM82.4 °F73.4 °F74 %29.80 in6.2 miVariable6.9 mphScattered Clouds
7:30 PM82.4 °F71.6 °F70 %29.80 in6.2 miENE (60°)4.6 mphScattered Clouds
8:00 PM81.0 °F73.0 °F71 %29.83 in12.0 miSouth (190°)4.6 mphScattered Clouds
8:00 PM80.6 °F73.4 °F79 %29.80 in6.2 miSouth (190°)4.6 mphPartly Cloudy
8:30 PM80.6 °F73.4 °F79 %29.83 in6.2 miSouth (170°)3.5 mphPartly Cloudy
9:00 PM80.6 °F73.4 °F79 %29.83 in6.2 miSouth (170°)2.3 mphPartly Cloudy
9:30 PM78.8 °F71.6 °F78 %29.83 in6.2 miEast (90°)3.5 mphPartly Cloudy
10:00 PM78.8 °F71.6 °F78 %29.86 in6.2 miEast (90°)2.3 mphPartly Cloudy
10:30 PM78.8 °F71.6 °F78 %29.83 in6.2 miESE (110°)2.3 mphPartly Cloudy
11:00 PM79.0 °F72.0 °F75 %29.85 in12.0 miESE (110°)6.7 mphScattered Clouds
11:00 PM78.8 °F71.6 °F78 %29.83 in6.2 miESE (110°)3.5 mphPartly Cloudy
11:30 PM78.8 °F71.6 °F78 %29.83 in6.2 miVariable2.3 mphPartly Cloudy
Hourly data recorded from NTAA, located miles away from Papeete, French Polynesia







STORIES FROM OUR PARTNERS